GW6532 Weather Reports


time (UTC)temp
F
wind
direction
speed
knots
gust
knots
rain 1hr
in
rain 24hr
in
rain mn
in
humidity
%
barometer
mb
20260504160251 78 295 3.5 5.2 0.00 0.00 0.00 38 1011.5
20260504150716 74 299 2.6 5.2 0.00 0.00 0.00 47 1012.0
20260504150213 74 333 1.7 6.1 0.00 0.00 0.00 49 1012.1
20260504141142 71 315 1.7 4.3 0.00 0.00 0.00 51 1012.3
20260504140639 71 291 2.6 5.2 0.00 0.00 0.00 49 1012.5
20260504140134 71 309 3.5 4.3 0.00 0.00 0.00 49 1012.6
20260504130602 67 303 1.7 3.5 0.00 0.00 0.00 54 1012.5
20260504110450 59 299 1.7 2.6 0.00 0.00 0.00 60 1011.8
20260504100413 59 279 1.7 1.7 0.00 0.00 0.00 58 1012.1
20260504081806 60 278 2.6 3.5 0.00 0.00 0.00 53 1011.7
20260504081302 60 296 1.7 2.6 0.00 0.00 0.00 53 1011.8
20260504080759 60 273 1.7 3.5 0.00 0.00 0.00 52 1011.9
20260504080255 60 290 2.6 2.6 0.00 0.00 0.00 53 1011.8
20260504070223 61 231 0.0 2.6 0.00 0.00 0.00 51 1012.2
20260504060143 60 194 0.9 1.7 0.00 0.00 0.00 50 1013.0
20260504050611 60 288 1.7 1.7 0.00 0.00 0.00 49 1013.6
20260504050108 60 320 0.9 1.7 0.00 0.00 0.00 49 1013.5
20260504045605 60 282 0.0 1.7 0.00 0.00 0.00 48 1013.5
20260504045100 60 310 1.7 1.7 0.00 0.00 0.00 49 1013.5
20260504044558 60 293 1.7 1.7 0.00 0.00 0.00 48 1013.3
20260504044055 60 248 0.0 1.7 0.00 0.00 0.00 48 1013.4
20260504043552 60 286 1.7 2.6 0.00 0.00 0.00 47 1013.5
20260504043049 60 162 0.0 3.5 0.00 0.00 0.00 48 1013.5
20260504042546 60 306 0.0 2.6 0.00 0.00 0.00 48 1013.7
20260504042043 60 284 1.7 1.7 0.00 0.00 0.00 48 1013.6
20260504041539 60 280 1.7 1.7 0.00 0.00 0.00 48 1013.4
20260504041035 60 335 0.9 2.6 0.00 0.00 0.00 48 1013.8
20260504040533 59 317 1.7 1.7 0.00 0.00 0.00 49 1013.8
20260504040029 59 261 0.0 1.7 0.00 0.00 0.00 51 1013.9
20260504035526 59 286 1.7 1.7 0.00 0.00 0.00 50 1014.1
20260504035022 58 291 0.0 0.9 0.00 0.00 0.00 51 1013.9
20260504034520 59 261 0.0 0.0 0.00 0.00 0.00 50 1014.0
20260504034017 59 271 0.0 0.9 0.00 0.00 0.00 49 1014.1
20260504033515 59 275 0.9 1.7 0.00 0.00 0.00 48 1014.0
20260504033012 59 274 0.0 0.9 0.00 0.00 0.00 49 1014.1
20260504032509 59 277 0.9 1.7 0.00 0.00 0.00 49 1014.1
20260504032005 60 266 0.0 2.6 0.00 0.00 0.00 48 1014.1
20260504031502 60 349 0.0 0.9 0.00 0.00 0.00 48 1014.5
20260504030959 60 251 0.0 1.7 0.00 0.00 0.00 46 1014.2
20260504030456 60 259 0.9 1.7 0.00 0.00 0.00 47 1014.0
20260504025952 60 269 0.9 1.7 0.00 0.00 0.00 46 1014.2
20260504025449 59 206 0.0 0.0 0.00 0.00 0.00 49 1014.1
20260504024946 60 257 0.9 1.7 0.00 0.00 0.00 48 1014.2
20260504024443 60 248 0.0 0.9 0.00 0.00 0.00 47 1014.1
20260504023940 60 162 0.0 0.0 0.00 0.00 0.00 47 1014.0
20260504023437 60 300 0.0 0.0 0.00 0.00 0.00 45 1014.2
20260504022932 61 300 0.0 0.9 0.00 0.00 0.00 45 1014.2
20260504022429 61 264 0.0 2.6 0.00 0.00 0.00 44 1014.2
20260504021925 61 10 1.7 1.7 0.00 0.00 0.00 44 1014.2
20260504021423 61 280 0.0 0.9 0.00 0.00 0.00 44 1014.1
20260504020920 62 302 0.9 1.7 0.00 0.00 0.00 42 1014.1
20260504020416 62 292 1.7 1.7 0.00 0.00 0.00 43 1013.8
20260504015913 62 316 0.0 1.7 0.00 0.00 0.00 42 1013.7
20260504015409 63 305 1.7 1.7 0.00 0.00 0.00 41 1013.9
20260504014905 63 254 1.7 1.7 0.00 0.00 0.00 41 1013.9
20260504014401 63 155 0.9 1.7 0.00 0.00 0.00 41 1013.6
20260504013859 64 274 1.7 2.6 0.00 0.00 0.00 40 1013.8
20260504013357 63 307 0.0 1.7 0.00 0.00 0.00 40 1013.8
20260504012853 64 316 0.0 1.7 0.00 0.00 0.00 39 1013.8
20260504012351 64 287 1.7 1.7 0.00 0.00 0.00 38 1013.7
20260504011848 65 273 0.9 2.6 0.00 0.00 0.00 37 1013.6
20260504011344 65 219 0.0 3.5 0.00 0.00 0.00 38 1013.7
20260504010841 64 255 0.0 1.7 0.00 0.00 0.00 39 1013.5
20260504010336 65 211 0.0 1.7 0.00 0.00 0.00 38 1013.5
20260504005833 65 210 0.9 1.7 0.00 0.00 0.00 37 1013.7
20260504005330 65 208 1.7 1.7 0.00 0.00 0.00 36 1013.8
20260504004827 66 269 0.0 1.7 0.00 0.00 0.00 35 1013.8
20260504004325 66 288 0.9 3.5 0.00 0.00 0.00 34 1013.7
20260504003821 67 300 0.0 1.7 0.00 0.00 0.00 34 1013.9
20260504003318 67 258 0.9 2.6 0.00 0.00 0.00 33 1013.9
20260504002815 67 303 2.6 2.6 0.00 0.00 0.00 32 1013.7
20260504002312 68 264 0.0 1.7 0.00 0.00 0.00 31 1013.8
20260504001809 68 8 0.9 2.6 0.00 0.00 0.00 31 1013.9
20260504001306 68 291 2.6 3.5 0.00 0.00 0.00 31 1013.8
20260504000803 69 259 0.0 3.5 0.00 0.00 0.00 31 1013.9
20260504000300 69 278 2.6 2.6 0.00 0.00 0.00 29 1013.9
20260503235758 69 292 3.5 7.0 0.00 0.00 0.00 29 1014.0
20260503235255 69 287 3.5 7.0 0.00 0.00 0.00 30 1014.1
20260503234753 70 266 2.6 3.5 0.00 0.00 0.00 30 1014.0
20260503234251 70 240 1.7 7.0 0.00 0.00 0.00 28 1014.0
20260503233748 71 257 0.9 5.2 0.00 0.00 0.00 28 1014.1
20260503233243 73 331 3.5 3.5 0.00 0.00 0.00 27 1014.1
20260503232741 73 218 2.6 4.3 0.00 0.00 0.00 27 1014.4
20260503232238 73 248 1.7 5.2 0.00 0.00 0.00 27 1014.3
20260503231736 73 286 2.6 5.2 0.00 0.00 0.00 26 1014.5
20260503231232 73 275 1.7 4.3 0.00 0.00 0.00 27 1014.3
20260503230728 74 236 0.0 4.3 0.00 0.00 0.00 26 1014.7
20260503230226 73 217 1.7 8.7 0.00 0.00 0.00 25 1014.6
20260503225723 72 275 4.3 6.1 0.00 0.00 0.00 26 1014.6
20260503225223 73 332 2.6 5.2 0.00 0.00 0.00 27 1014.6
20260503224720 73 293 4.3 5.2 0.00 0.00 0.00 26 1014.8
20260503224218 74 241 1.7 7.8 0.00 0.00 0.00 26 1014.6
20260503223716 74 277 2.6 7.0 0.00 0.00 0.00 24 1014.9
20260503223213 74 260 1.7 5.2 0.00 0.00 0.00 27 1015.0
20260503222709 74 246 0.0 5.2 0.00 0.00 0.00 25 1015.2
20260503222207 73 226 2.6 5.2 0.00 0.00 0.00 27 1015.1
20260503221706 74 305 2.6 3.5 0.00 0.00 0.00 27 1015.2
20260503221203 73 305 5.2 6.1 0.00 0.00 0.00 26 1015.2
20260503220659 73 320 3.5 7.8 0.00 0.00 0.00 25 1015.3
20260503220156 74 299 2.6 5.2 0.00 0.00 0.00 27 1015.4
20260503215653 74 264 1.7 5.2 0.00 0.00 0.00 27 1015.4
20260503215149 74 235 1.7 7.8 0.00 0.00 0.00 27 1015.5
20260503214648 73 263 3.5 4.3 0.00 0.00 0.00 27 1015.6
20260503214144 73 271 1.7 7.0 0.00 0.00 0.00 28 1015.8
20260503213643 73 279 1.7 4.3 0.00 0.00 0.00 26 1015.9
20260503213139 74 203 1.7 5.2 0.00 0.00 0.00 27 1015.9
20260503212637 74 309 3.5 6.1 0.00 0.00 0.00 30 1016.1
20260503212134 74 286 4.3 4.3 0.00 0.00 0.00 26 1015.8
20260503211632 74 289 1.7 6.1 0.00 0.00 0.00 27 1016.1
20260503211127 73 288 2.6 5.2 0.00 0.00 0.00 28 1016.2
20260503210624 73 208 2.6 7.0 0.00 0.00 0.00 27 1016.5
20260503210120 73 264 1.7 5.2 0.00 0.00 0.00 29 1016.8
20260503205616 72 306 1.7 5.2 0.00 0.00 0.00 29 1016.6
20260503205113 73 319 6.1 6.1 0.00 0.00 0.00 28 1016.5
20260503204609 73 304 2.6 4.3 0.00 0.00 0.00 28 1016.7
20260503204107 73 310 4.3 5.2 0.00 0.00 0.00 27 1016.8
20260503203604 73 292 6.1 7.8 0.00 0.00 0.00 26 1017.0
20260503203101 73 292 5.2 6.1 0.00 0.00 0.00 28 1017.3
20260503202559 72 284 5.2 5.2 0.00 0.00 0.00 28 1017.4
20260503202056 72 293 2.6 5.2 0.00 0.00 0.00 30 1017.5
20260503201554 72 293 4.3 7.8 0.00 0.00 0.00 30 1017.6
20260503201051 72 298 1.7 8.7 0.00 0.00 0.00 28 1017.8
20260503200547 72 287 5.2 9.6 0.00 0.00 0.00 28 1017.8
20260503200044 72 235 1.7 4.3 0.00 0.00 0.00 29 1018.1
20260503195541 71 284 3.5 4.3 0.00 0.00 0.00 28 1018.2
20260503195038 71 289 4.3 6.1 0.00 0.00 0.00 30 1018.1
20260503194535 72 211 0.9 3.5 0.00 0.00 0.00 29 1018.4
20260503194035 71 306 2.6 7.0 0.00 0.00 0.00 31 1018.6
20260503193532 71 311 4.3 5.2 0.00 0.00 0.00 29 1018.8
20260503193027 71 316 4.3 7.8 0.00 0.00 0.00 30 1018.6
20260503192524 72 306 5.2 5.2 0.00 0.00 0.00 31 1018.9
20260503192020 71 239 2.6 4.3 0.00 0.00 0.00 31 1018.8
20260503191517 70 260 2.6 5.2 0.00 0.00 0.00 30 1018.8
20260503191013 70 303 3.5 6.1 0.00 0.00 0.00 30 1018.9
20260503190510 71 283 3.5 5.2 0.00 0.00 0.00 32 1019.1
20260503190008 70 202 3.5 4.3 0.00 0.00 0.00 30 1019.0
20260503185504 71 200 1.7 6.1 0.00 0.00 0.00 31 1019.3
20260503185003 70 320 1.7 3.5 0.00 0.00 0.00 33 1019.5
20260503184500 69 299 0.9 7.8 0.00 0.00 0.00 32 1019.6
20260503183956 70 290 2.6 3.5 0.00 0.00 0.00 33 1019.7
20260503183453 69 257 0.0 5.2 0.00 0.00 0.00 31 1019.8
20260503182950 69 260 1.7 5.2 0.00 0.00 0.00 33 1019.9
20260503182449 69 346 4.3 5.2 0.00 0.00 0.00 30 1020.1
20260503181946 69 100 0.9 6.1 0.00 0.00 0.00 35 1020.2
20260503181443 69 305 0.9 4.3 0.00 0.00 0.00 33 1020.3
20260503180939 68 275 4.3 5.2 0.00 0.00 0.00 35 1020.4
20260503180438 68 303 1.7 6.1 0.00 0.00 0.00 32 1020.4
20260503175934 68 282 4.3 6.1 0.00 0.00 0.00 33 1020.5
20260503175432 68 291 0.9 3.5 0.00 0.00 0.00 34 1020.7
20260503174927 68 294 4.3 5.2 0.00 0.00 0.00 36 1020.8
20260503174426 68 265 1.7 5.2 0.00 0.00 0.00 33 1020.8
20260503173926 67 326 3.5 5.2 0.00 0.00 0.00 33 1020.8
20260503173422 67 328 2.6 6.1 0.00 0.00 0.00 35 1021.0
20260503172919 67 262 2.6 4.3 0.00 0.00 0.00 32 1020.8
20260503172417 67 290 2.6 7.0 0.00 0.00 0.00 38 1020.9
20260503171913 68 215 0.0 2.6 0.00 0.00 0.00 35 1021.1
20260503171410 67 266 2.6 5.2 0.00 0.00 0.00 35 1021.2
20260503170907 67 290 3.5 4.3 0.00 0.00 0.00 35 1021.3
20260503170403 68 197 2.6 4.3 0.00 0.00 0.00 35 1021.3